City's sites:

title views votes rating creation
?never been here 352 12 (3.08)  2010-02-07
?pastel negro 563 14 (2.50)  2010-02-07
?dizzy 254 8 (3.38)  2010-02-07
?two pictures from my desktop 833 16 (3.69)  2010-02-09
?broken clock realizes he is the last object left in the ... 394 10 (3.20)  2010-02-09
?heroes of old 559 19 (3.74)  2010-02-09
?mr. price 401 8 (3.25)  2010-02-09
?Music I Like - Part 1 581 10 (3.60)  2010-02-10
?Music I Like - Part 2 350 13 (3.54)  2010-02-10
?Music I Like - Part 3 510 13 (3.69)  2010-02-10
?Music I Like - Part 4 380 5 (3.20)  2010-02-10
?intense 495 9 (3.78)  2010-02-10
?oh SNAP 730 9 (3.22)  2010-02-10
?Music I Like - Part 5 509 9 (3.56)  2010-02-10
?SignlanguageTMND 348 14 (3.86)  2010-02-10
?lol internet (refresh) 553 6 (3.17)  2010-02-12
?Dumbeldore kills snape! 3,258 67 (4.03)  2010-02-12
?prairiedogeric10 tribute site 637 23 (3.96)  2010-02-13
?Legolewdite fan club 1,248 38 (3.87)  2010-02-13
?Connery retires 369 13 (3.85)  2010-02-13
?TOURNEY4: lol internet 512 7 (2.43)  2010-02-15
?Speed Deemon 924 23 (3.74)  2010-02-23
?Tribute: ASSCOCKredux 1,569 64 (3.91)  2010-02-23
?some light jazz with Robert De Niro 799 12 (3.50)  2010-02-23
?In What Language 1,418 34 (3.74)  2010-02-24
?go go go go go go go go go go go go go go go go ... 2,018 23 (3.74)  2010-02-24
?FEARCONDOM'S FAMILY Q U I L T 580 11 (3.55)  2010-02-24
?TEST 712 19 (3.84)  2010-02-26
?....someday, oh dream maker DUNANANANAN... 5,036 148 (3.96)  2010-02-28
?DOUGH FUNNIE HOMO DICKS 580 12 (3.58)  2010-03-01
?Using a concrete bricK 553 17 (3.82)  2010-03-01
?I had sex with a Kayan Tribe woman, little help plea... 878 11 (3.36)  2010-03-03
?Adventure 4 1,015 17 (3.65)  2010-03-03
?the standoff 431 9 (3.67)  2010-03-03
?alley children 501 11 (3.91)  2010-03-05
?Steven Seagal isn't impressed 9,771 181 (4.17)  2010-03-05
?Daunting Steps 218 7 (3.00)  2010-03-05
?Cruel and Unusual 6,113 163 (4.24)  2010-03-09
?DancehallTMND 429 10 (3.80)  2010-03-12
?FUCK OUT MY FACE 487 5 (2.60)  2010-03-18
?16, no dither 746 18 (3.94)  2010-03-20
?say hi to my girlfriend 912 16 (3.81)  2010-03-21
?TT 544 16 (3.88)  2010-03-23
?jimmm thinks about his next five 644 20 (3.80)  2010-03-24
?THE TELEKINETIC MAN 273 18 (3.50)  2010-03-25
?. 119 7 (2.71)  2010-03-26
?1! 319 17 (3.35)  2010-03-26
?Fake crocodile takes it to the limit one more time 589 9 (3.67)  2010-03-27
?croctheme 394 4 (3.25)  2010-03-27
?crocodile site 375 6 (3.50)  2010-03-27
?CROC MAKES A 187 LOOK EASY 181 6 (3.33)  2010-03-27
?New Croc SIte 162 5 (3.40)  2010-03-27
?L 311 19 (3.63)  2010-03-27
?crocodile sIte 239 10 (3.50)  2010-03-30
?Pleasant® 292 8 (3.38)  2010-03-30
?A Lovely Ride 245 13 (3.85)  2010-03-30
?It's glorious today 286 14 (3.64)  2010-04-01
?Na - Zu 416 10 (3.70)  2010-04-01
?WHO'NOWOWOWOW 410 5 (2.60)  2010-04-03
?part of your world 200 5 (3.00)  2010-04-04
?fff 172 4 (3.50)  2010-04-04
?FIve-star webiste 943 16 (1.94)  2010-04-04
?Captain Haddock 1,692 28 (3.86)  2010-04-04
?, 248 9 (3.33)  2010-04-05
?indnian 385 7 (2.71)  2010-04-05
?Ricky Manning tribute sIte will be Underway soon ! 208 3 (3.67)  2010-04-06
?Epic Domain Grab 198 6 (2.17)  2010-04-06
?retirement site 162 6 (2.83)  2010-04-06
?Paul newman doesn't drive a VAN 181 4 (3.00)  2010-04-06
?Vince McMan 326 7 (2.86)  2010-04-06
?LOL 292 5 (3.00)  2010-04-06
?wut 280 4 (2.75)  2010-04-06
?www.coachcarter.ytmnd.com 309 8 (1.88)  2010-04-06
?untitled 281 7 (2.14)  2010-04-09
?ExpirimennalTYTMND 356 8 (3.38)  2010-04-09
?jioejejejoijiojiojioejiejoijeoj 395 14 (3.79)  2010-04-09
?Jake Steele catches a fly ball 341 4 (3.50)  2010-04-10
?Jake Steele forgets the milk 321 3 (3.00)  2010-04-10
?Jake Steele just found his watch 308 4 (3.25)  2010-04-10
?Jake Steele grows up a bit 423 7 (2.86)  2010-04-10
?KRA2008 354 5 (2.60)  2010-04-10
?Fuck the world 743 26 (3.88)  2010-04-16
?a sexual guy 485 10 (2.30)  2010-05-12
?well 298 4 (4.25)  2010-09-03
?gay site you can watch while thinking about stuff 1,524 15 (4.07)  2010-09-13
?site dedicated to great warchief 1,255 12 (3.58)  2010-09-16
?38388 836 8 (3.88)  2010-09-16
?watching the world buzz by 490 4 (3.50)  2010-09-16
?what now 1,415 17 (3.94)  2010-09-16